Tracking 30298 objects as of 27-Apr-2025
HD Live streaming from Space Station
objects crossing your sky now

FENGYUN 1C DEB

Track FENGYUN 1C DEB now!
10-day predictions


NORAD ID: 31030
Int'l Code: 1999-025BDY
Perigee: 803.8 km
Apogee: 843.6 km
Inclination: 98.8 °
Period: 101.2 minutes
Semi major axis: 7194 km
RCS: 0.0064 m2 (small)
Launch date: May 10, 1999
Source: People's Republic of China (PRC)
Launch site: Taiyaun Space Center, China (TSC)

Note: This is SATELLITE DEBRIS
Your satellite tracking list
Your tracking list is empty




NASA's NSSDC Master Catalog

Two Line Element Set (TLE):
1 31030U 99025BDY 25115.11359681  .00003625  00000-0  16349-2 0  9991
2 31030  98.7831 177.7665 0027666  35.7804  39.1149 14.22601172934108
Source of the keplerian elements: AFSPC